When you browse on this site, cookies collect data to enhance your experience and personalize the content and advertising you see.
Visit our Privacy Policy to learn more. By continuing to use the site, you agree to this use of cookies and data.
  • In Sweden
  • List of Countries
  • For 7 days
  • Water Temperature
  • Satellite Maps
  • Weather Map
  • Weather Widgets
  • user-avatar
    Login

    Hourly Weather Szczecin

    Today, 11 December, Tuesday

    Time Temperature Precipitation Wind Pressure Humidity
    00:00 +2°C° 0.2 mm 6 mps 752 mmHg 77%
    01:00 +2°C° 0 mm 6 mps 752 mmHg 79%
    02:00 +2°C° 0.6 mm 6 mps 752 mmHg 79%
    03:00 +2°C° 0.6 mm 6 mps 752 mmHg 79%
    04:00 +2°C° 0.6 mm 7 mps 752 mmHg 79%
    05:00 +2°C° 0.4 mm 6 mps 753 mmHg 79%
    06:00 +2°C° 0.4 mm 6 mps 753 mmHg 80%
    07:00 +2°C° 0.4 mm 5 mps 754 mmHg 80%
    08:00 +2°C° 0.1 mm 5 mps 754 mmHg 79%
    09:00 +2°C° 0.1 mm 5 mps 754 mmHg 78%
    10:00 +2°C° 0.1 mm 5 mps 755 mmHg 77%
    11:00 +2°C° 0.1 mm 5 mps 755 mmHg 76%
    12:00 +2°C° 0.1 mm 5 mps 756 mmHg 75%
    13:00 +3°C° 0.1 mm 5 mps 756 mmHg 74%
    14:00 +2°C° 0.1 mm 5 mps 757 mmHg 77%
    15:00 +3°C° 0.1 mm 4 mps 757 mmHg 79%
    16:00 +3°C° 0.1 mm 4 mps 758 mmHg 82%
    17:00 +3°C° 0.1 mm 4 mps 758 mmHg 83%
    18:00 +3°C° 0.1 mm 4 mps 758 mmHg 83%
    19:00 +1°C° 0.1 mm 4 mps 759 mmHg 84%
    20:00 +1°C° 0 mm 4 mps 759 mmHg 85%
    21:00 +1°C° 0 mm 4 mps 760 mmHg 86%
    22:00 +1°C° 0 mm 4 mps 760 mmHg 87%
    23:00 +1°C° 0 mm 4 mps 761 mmHg 88%

    Tomorrow, 12 December, Wednesday

    Time Temperature Precipitation Wind Pressure Humidity
    00:00 +2°C° 0 mm 3 mps 761 mmHg 90%
    01:00 +1°C° 0 mm 3 mps 762 mmHg 91%
    02:00 +1°C° 0 mm 3 mps 762 mmHg 91%
    03:00 +1°C° 0 mm 3 mps 763 mmHg 91%
    04:00 +1°C° 0 mm 2 mps 763 mmHg 91%
    05:00 +1°C° 0 mm 2 mps 763 mmHg 91%
    06:00 +1°C° 0 mm 2 mps 764 mmHg 90%
    07:00 +1°C° 0 mm 2 mps 764 mmHg 89%
    08:00 +2°C° 0 mm 1 mps 765 mmHg 87%
    09:00 +3°C° 0 mm 1 mps 765 mmHg 86%
    10:00 +3°C° 0 mm 1 mps 765 mmHg 84%
    11:00 +4°C° 0.1 mm 1 mps 765 mmHg 82%
    12:00 +5°C° 0.1 mm 1 mps 766 mmHg 80%
    13:00 +5°C° 0.1 mm 1 mps 766 mmHg 78%
    14:00 +4°C° 0.1 mm 1 mps 766 mmHg 81%
    15:00 +4°C° 0.1 mm 1 mps 766 mmHg 84%
    16:00 +3°C° 0.1 mm 1 mps 766 mmHg 87%
    17:00 +2°C° 0.1 mm 2 mps 766 mmHg 87%
    18:00 +2°C° 0.1 mm 2 mps 766 mmHg 88%
    19:00 +2°C° 0.1 mm 2 mps 767 mmHg 88%
    20:00 +1°C° 0 mm 2 mps 767 mmHg 89%
    21:00 +1°C° 0 mm 2 mps 767 mmHg 89%
    22:00 +1°C° 0 mm 2 mps 767 mmHg 90%
    23:00 +1°C° 0 mm 2 mps 767 mmHg 90%

    Day after tomorrow, 13 December, Thursday

    Time Temperature Precipitation Wind Pressure Humidity
    00:00 +1°C° 0 mm 2 mps 767 mmHg 90%
    01:00 +1°C° 0 mm 2 mps 767 mmHg 90%
    02:00 +1°C° 0 mm 2 mps 767 mmHg 90%
    03:00 +1°C° 0 mm 2 mps 767 mmHg 91%
    04:00 -1°C° 0 mm 2 mps 767 mmHg 91%
    05:00 -1°C° 0 mm 2 mps 766 mmHg 91%
    06:00 -1°C° 0 mm 2 mps 766 mmHg 91%
    07:00 -1°C° 0 mm 2 mps 766 mmHg 91%
    08:00 +1°C° 0 mm 2 mps 766 mmHg 89%
    09:00 +1°C° 0 mm 2 mps 766 mmHg 88%
    10:00 +1°C° 0 mm 2 mps 766 mmHg 86%
    11:00 +1°C° 0 mm 3 mps 766 mmHg 82%
    12:00 +1°C° 0 mm 3 mps 766 mmHg 79%
    13:00 +1°C° 0 mm 3 mps 766 mmHg 75%
    14:00 +1°C° 0 mm 3 mps 766 mmHg 78%
    15:00 +1°C° 0 mm 2 mps 766 mmHg 80%
    16:00 -1°C° 0 mm 2 mps 766 mmHg 83%
    17:00 -1°C° 0 mm 2 mps 766 mmHg 84%
    18:00 -1°C° 0 mm 2 mps 766 mmHg 84%
    19:00 -1°C° 0 mm 2 mps 766 mmHg 85%
    20:00 -1°C° 0 mm 2 mps 767 mmHg 85%
    21:00 -1°C° 0 mm 2 mps 767 mmHg 85%
    22:00 -2°C° 0 mm 2 mps 767 mmHg 85%
    23:00 0°C° 0 mm 1 mps 767 mmHg 85%

    14 December, Friday

    Time Temperature Precipitation Wind Pressure Humidity
    00:00 0°C° 0 mm 1 mps 767 mmHg 86%
    01:00 0°C° 0 mm 1 mps 767 mmHg 86%
    02:00 0°C° 0 mm 1 mps 767 mmHg 86%
    03:00 0°C° 0 mm 1 mps 767 mmHg 86%
    04:00 0°C° 0 mm 1 mps 767 mmHg 85%
    05:00 0°C° 0 mm 1 mps 767 mmHg 85%
    06:00 0°C° 0 mm 1 mps 767 mmHg 85%
    07:00 0°C° 0 mm 1 mps 767 mmHg 85%
    08:00 0°C° 0 mm 1 mps 767 mmHg 83%
    09:00 -2°C° 0 mm 2 mps 767 mmHg 81%
    10:00 -1°C° 0 mm 2 mps 767 mmHg 79%
    11:00 -1°C° 0 mm 2 mps 767 mmHg 76%
    12:00 -1°C° 0 mm 2 mps 767 mmHg 73%
    13:00 +1°C° 0 mm 2 mps 767 mmHg 70%
    14:00 -1°C° 0 mm 2 mps 767 mmHg 73%
    15:00 -1°C° 0 mm 2 mps 767 mmHg 76%
    16:00 -2°C° 0 mm 2 mps 767 mmHg 79%
    17:00 -2°C° 0 mm 2 mps 768 mmHg 79%
    18:00 -2°C° 0 mm 2 mps 768 mmHg 80%
    19:00 -2°C° 0 mm 2 mps 768 mmHg 80%
    20:00 -2°C° 0 mm 2 mps 768 mmHg 80%
    21:00 -2°C° 0 mm 2 mps 769 mmHg 80%
    22:00 -2°C° 0 mm 2 mps 769 mmHg 80%
    23:00 -2°C° 0 mm 2 mps 769 mmHg 80%

    15 December, Saturday

    Time Temperature Precipitation Wind Pressure Humidity
    00:00 -2°C° 0 mm 2 mps 769 mmHg 81%
    01:00 -2°C° 0 mm 2 mps 769 mmHg 81%
    02:00 -2°C° 0 mm 2 mps 769 mmHg 81%
    03:00 -2°C° 0 mm 2 mps 769 mmHg 81%
    04:00 -2°C° 0 mm 2 mps 769 mmHg 81%
    05:00 -2°C° 0 mm 2 mps 769 mmHg 80%
    06:00 -2°C° 0 mm 2 mps 769 mmHg 80%
    07:00 -2°C° 0 mm 2 mps 770 mmHg 80%
    08:00 -2°C° 0 mm 2 mps 770 mmHg 78%
    09:00 -2°C° 0 mm 2 mps 770 mmHg 76%
    10:00 -2°C° 0 mm 2 mps 770 mmHg 75%
    11:00 -1°C° 0 mm 2 mps 770 mmHg 73%
    12:00 -1°C° 0 mm 2 mps 770 mmHg 71%
    13:00 +1°C° 0 mm 2 mps 770 mmHg 69%
    14:00 -1°C° 0 mm 2 mps 770 mmHg 74%
    15:00 -2°C° 0 mm 2 mps 770 mmHg 78%
    16:00 -2°C° 0 mm 2 mps 770 mmHg 83%
    17:00 -2°C° 0 mm 2 mps 770 mmHg 85%
    18:00 -2°C° 0 mm 3 mps 770 mmHg 88%
    19:00 -4°C° 0 mm 3 mps 770 mmHg 90%
    20:00 -4°C° 0 mm 3 mps 770 mmHg 90%
    21:00 -4°C° 0 mm 3 mps 770 mmHg 90%
    22:00 -4°C° 0 mm 3 mps 770 mmHg 90%
    23:00 -4°C° 0 mm 3 mps 769 mmHg 90%

    16 December, Sunday

    Time Temperature Precipitation Wind Pressure Humidity
    00:00 -4°C° 0 mm 3 mps 769 mmHg 90%
    01:00 -4°C° 0 mm 4 mps 769 mmHg 90%
    02:00 -4°C° 0 mm 4 mps 768 mmHg 88%
    03:00 -5°C° 0 mm 5 mps 768 mmHg 85%
    04:00 -5°C° 0 mm 5 mps 767 mmHg 83%
    05:00 -5°C° 0 mm 5 mps 767 mmHg 82%
    06:00 -4°C° 0 mm 6 mps 766 mmHg 80%
    07:00 -4°C° 0 mm 6 mps 766 mmHg 79%
    08:00 -4°C° 0 mm 6 mps 766 mmHg 77%
    09:00 -4°C° 0 mm 7 mps 765 mmHg 75%
    10:00 -4°C° 0 mm 8 mps 765 mmHg 73%
    11:00 -4°C° 0 mm 8 mps 764 mmHg 71%
    12:00 -4°C° 0 mm 8 mps 764 mmHg 68%
    13:00 -2°C° 0 mm 8 mps 763 mmHg 65%
    14:00 -2°C° 0.1 mm 8 mps 762 mmHg 67%
    15:00 -4°C° 0.1 mm 8 mps 762 mmHg 69%
    16:00 -4°C° 0.1 mm 8 mps 761 mmHg 71%
    17:00 -4°C° 0.4 mm 8 mps 761 mmHg 75%
    18:00 -4°C° 0.4 mm 8 mps 760 mmHg 79%
    19:00 -4°C° 0.4 mm 9 mps 759 mmHg 84%
    20:00 -4°C° 0.8 mm 8 mps 759 mmHg 85%
    21:00 -4°C° 0.8 mm 8 mps 758 mmHg 87%
    22:00 -4°C° 0.8 mm 8 mps 758 mmHg 88%
    23:00 -4°C° 0.6 mm 8 mps 757 mmHg 89%
    Show more